FW9002 Weather Reports


time (UTC)temp
F
wind
direction
speed
knots
gust
knots
rain 1hr
in
rain 24hr
in
rain mn
in
humidity
%
barometer
mb
20260906205641 99 308 2.6 4.3 0.00 0.00 0.00 28 1010.5
20260906205137 98 265 5.2 7.8 0.00 0.00 0.00 27 1010.6
20260906204637 98 260 2.6 2.6 0.00 0.00 0.00 29 1010.7
20260906204132 98 286 5.2 6.1 0.00 0.00 0.00 28 1010.9
20260906203631 99 276 3.5 5.2 0.00 0.00 0.00 28 1011.0
20260906203126 98 343 2.6 2.6 0.00 0.00 0.00 29 1010.7
20260906202623 98 277 3.5 5.2 0.00 0.00 0.00 29 1011.1
20260906202122 98 302 6.1 8.7 0.00 0.00 0.00 28 1011.2
20260906201618 98 276 5.2 7.0 0.00 0.00 0.00 29 1011.1
20260906201117 97 270 3.5 4.3 0.00 0.00 0.00 30 1011.2
20260906200613 97 295 4.3 6.1 0.00 0.00 0.00 30 1011.0
20260906200109 97 287 5.2 8.7 0.00 0.00 0.00 30 1011.4
20260906195604 97 195 4.3 5.2 0.00 0.00 0.00 30 1011.4
20260906195100 97 337 3.5 4.3 0.00 0.00 0.00 30 1011.4
20260906194556 96 308 2.6 2.6 0.00 0.00 0.00 30 1011.4
20260906194051 97 303 5.2 6.1 0.00 0.00 0.00 29 1011.3
20260906193551 97 342 1.7 2.6 0.00 0.00 0.00 30 1011.2
20260906193046 97 284 1.7 1.7 0.00 0.00 0.00 31 1011.7
20260906192542 97 278 1.7 2.6 0.00 0.00 0.00 29 1011.8
20260906192041 96 331 2.6 2.6 0.00 0.00 0.00 31 1011.9
20260906191536 95 310 0.9 0.9 0.00 0.00 0.00 32 1012.0
20260906191035 94 330 2.6 2.6 0.00 0.00 0.00 32 1012.2
20260906190534 95 265 0.9 0.9 0.00 0.00 0.00 31 1012.1
20260906190030 95 287 1.7 1.7 0.00 0.00 0.00 31 1012.2
20260906185528 95 282 0.9 0.9 0.00 0.00 0.00 32 1012.1
20260906185027 95 216 0.9 0.9 0.00 0.00 0.00 33 1012.4
20260906184523 94 304 0.9 0.9 0.00 0.00 0.00 33 1012.5
20260906184018 95 295 2.6 4.3 0.00 0.00 0.00 32 1012.6
20260906183514 95 295 4.3 5.2 0.00 0.00 0.00 31 1012.7
20260906183010 95 144 0.0 0.0 0.00 0.00 0.00 32 1012.7
20260906182505 94 295 1.7 1.7 0.00 0.00 0.00 33 1012.8
20260906182001 94 283 1.7 1.7 0.00 0.00 0.00 33 1012.7
20260906181456 94 58 0.9 0.9 0.00 0.00 0.00 34 1012.7
20260906180952 93 295 0.9 0.9 0.00 0.00 0.00 34 1013.2
20260906180446 93 203 3.5 4.3 0.00 0.00 0.00 35 1013.1
20260906175944 93 260 1.7 1.7 0.00 0.00 0.00 34 1013.0
20260906175440 93 253 0.9 0.9 0.00 0.00 0.00 34 1013.2
20260906174938 92 300 1.7 1.7 0.00 0.00 0.00 35 1013.2
20260906174437 93 275 1.7 1.7 0.00 0.00 0.00 35 1013.2
20260906173933 94 279 1.7 1.7 0.00 0.00 0.00 34 1013.1
20260906173428 93 294 1.7 1.7 0.00 0.00 0.00 34 1013.3
20260906172927 93 296 1.7 1.7 0.00 0.00 0.00 35 1013.1
20260906172424 91 209 0.0 0.9 0.00 0.00 0.00 36 1013.2
20260906171919 90 13 0.0 0.0 0.00 0.00 0.00 38 1013.2
20260906171413 91 245 1.7 1.7 0.00 0.00 0.00 36 1013.3
20260906170909 90 261 1.7 1.7 0.00 0.00 0.00 35 1013.3
20260906170405 90 290 0.9 0.9 0.00 0.00 0.00 37 1013.3
20260906165901 91 276 0.9 0.9 0.00 0.00 0.00 36 1013.3
20260906165401 91 192 0.9 0.9 0.00 0.00 0.00 36 1013.2
20260906164856 91 289 0.9 0.9 0.00 0.00 0.00 36 1013.3
20260906164355 90 247 1.7 1.7 0.00 0.00 0.00 37 1013.2
20260906163851 88 138 0.9 0.9 0.00 0.00 0.00 37 1013.3
20260906163347 87 178 0.9 0.9 0.00 0.00 0.00 38 1013.4
20260906162845 87 239 0.9 0.9 0.00 0.00 0.00 40 1013.3
20260906162343 86 249 0.0 0.0 0.00 0.00 0.00 42 1013.3
20260906161839 86 281 1.7 1.7 0.00 0.00 0.00 40 1013.3
20260906161338 86 258 1.7 1.7 0.00 0.00 0.00 40 1013.3
20260906160837 86 234 0.0 0.0 0.00 0.00 0.00 41 1013.2
20260906160331 86 258 1.7 1.7 0.00 0.00 0.00 40 1013.5
20260906155829 86 166 0.9 0.9 0.00 0.00 0.00 40 1013.4
20260906155323 86 210 1.7 2.6 0.00 0.00 0.00 40 1013.4
20260906154820 86 217 0.0 0.0 0.00 0.00 0.00 42 1013.2
20260906154314 86 240 1.7 1.7 0.00 0.00 0.00 40 1013.5
20260906153812 86 197 0.0 0.0 0.00 0.00 0.00 40 1013.4
20260906153307 86 196 0.0 0.0 0.00 0.00 0.00 42 1013.8
20260906152802 85 196 0.9 0.9 0.00 0.00 0.00 40 1013.5
20260906152257 85 197 0.0 0.0 0.00 0.00 0.00 40 1013.5
20260906151756 85 197 0.0 0.0 0.00 0.00 0.00 42 1013.8
20260906151252 85 192 0.9 0.9 0.00 0.00 0.00 41 1013.5
20260906150747 85 127 0.9 0.9 0.00 0.00 0.00 41 1013.6
20260906150243 85 146 0.9 0.9 0.00 0.00 0.00 41 1013.5
20260906145741 86 154 1.7 1.7 0.00 0.00 0.00 40 1013.5
20260906145240 86 105 0.0 0.0 0.00 0.00 0.00 42 1013.5
20260906144736 86 177 1.7 1.7 0.00 0.00 0.00 40 1013.8
20260906144230 84 128 1.7 1.7 0.00 0.00 0.00 43 1013.9
20260906143730 83 119 0.9 0.9 0.00 0.00 0.00 47 1013.6
20260906143227 82 81 0.0 0.0 0.00 0.00 0.00 51 1013.6
20260906142726 81 129 0.0 0.0 0.00 0.00 0.00 48 1013.5
20260906142222 80 145 0.9 0.9 0.00 0.00 0.00 49 1013.4
20260906141721 80 157 0.9 1.7 0.00 0.00 0.00 50 1013.3
20260906141216 79 79 0.0 0.0 0.00 0.00 0.00 51 1013.4
20260906140715 78 79 0.0 0.0 0.00 0.00 0.00 53 1013.4
20260906140210 78 79 0.9 0.9 0.00 0.00 0.00 53 1013.1
20260906135707 78 78 0.0 0.0 0.00 0.00 0.00 54 1013.1
20260906135203 77 79 0.9 0.9 0.00 0.00 0.00 55 1013.0
20260906134658 77 79 0.0 0.0 0.00 0.00 0.00 57 1012.9
20260906134153 77 79 0.0 0.0 0.00 0.00 0.00 55 1013.0
20260906133649 77 79 0.0 0.0 0.00 0.00 0.00 56 1013.0
20260906133144 77 79 0.0 0.0 0.00 0.00 0.00 55 1012.9
20260906132639 77 79 0.0 0.0 0.00 0.00 0.00 55 1013.0
20260906132135 77 79 0.0 0.0 0.00 0.00 0.00 56 1013.0
20260906131630 77 79 0.0 0.0 0.00 0.00 0.00 55 1013.1
20260906131125 77 78 0.0 0.0 0.00 0.00 0.00 55 1012.9
20260906130620 77 79 0.0 0.0 0.00 0.00 0.00 54 1012.9
20260906130115 77 78 0.0 0.0 0.00 0.00 0.00 54 1013.0
20260906125613 76 78 0.9 0.9 0.00 0.00 0.00 55 1013.0
20260906125112 76 88 0.0 0.0 0.00 0.00 0.00 55 1013.0
20260906124608 77 88 0.0 0.0 0.00 0.00 0.00 55 1013.2
20260906124102 77 88 0.0 0.0 0.00 0.00 0.00 55 1013.0
20260906123601 77 88 0.0 0.0 0.00 0.00 0.00 55 1012.9
20260906123057 77 88 0.9 0.9 0.00 0.00 0.00 55 1012.8
20260906122556 77 88 0.0 0.0 0.00 0.00 0.00 55 1012.6
20260906122052 77 88 0.0 0.0 0.00 0.00 0.00 54 1012.7
20260906121548 77 86 0.9 0.9 0.00 0.00 0.00 54 1012.8
20260906121044 77 86 0.0 0.0 0.00 0.00 0.00 54 1012.8
20260906120540 77 79 0.9 0.9 0.00 0.00 0.00 54 1012.8
20260906120037 78 88 0.9 0.9 0.00 0.00 0.00 54 1012.6
20260906115536 78 80 1.7 1.7 0.00 0.00 0.00 55 1012.6
20260906115032 78 84 0.9 0.9 0.00 0.00 0.00 55 1012.6
20260906114526 78 85 0.0 0.0 0.00 0.00 0.00 55 1012.4
20260906114021 78 83 0.0 0.0 0.00 0.00 0.00 54 1012.2
20260906113520 78 58 0.9 0.9 0.00 0.00 0.00 54 1012.2
20260906113016 78 68 0.9 0.9 0.00 0.00 0.00 54 1012.5
20260906112511 79 77 0.0 0.0 0.00 0.00 0.00 53 1012.2
20260906112007 79 76 0.0 0.0 0.00 0.00 0.00 53 1012.1
20260906111506 79 77 0.9 0.9 0.00 0.00 0.00 53 1012.1
20260906111001 79 89 0.0 0.0 0.00 0.00 0.00 51 1012.4
20260906110456 79 96 0.0 0.0 0.00 0.00 0.00 52 1012.0
20260906105954 79 85 0.9 0.9 0.00 0.00 0.00 52 1012.0
20260906105452 79 93 0.9 0.9 0.00 0.00 0.00 52 1012.2
20260906104947 79 119 0.9 0.9 0.00 0.00 0.00 52 1012.0
20260906104446 79 120 0.9 0.9 0.00 0.00 0.00 53 1012.2
20260906103945 79 84 0.0 0.0 0.00 0.00 0.00 54 1012.1
20260906103443 79 77 0.0 0.0 0.00 0.00 0.00 54 1012.2
20260906102938 79 77 0.0 0.0 0.00 0.00 0.00 54 1012.2
20260906102438 79 77 0.0 0.0 0.00 0.00 0.00 55 1012.1
20260906101933 79 77 0.0 0.0 0.00 0.00 0.00 55 1012.1
20260906101428 79 77 0.0 0.0 0.00 0.00 0.00 55 1012.1
20260906100924 79 66 0.0 0.0 0.00 0.00 0.00 56 1012.1
20260906100424 79 66 0.0 0.0 0.00 0.00 0.00 56 1012.4
20260906095918 79 66 0.0 0.0 0.00 0.00 0.00 55 1011.9
20260906095414 78 66 0.0 0.0 0.00 0.00 0.00 56 1011.9
20260906094908 78 66 0.0 0.0 0.00 0.00 0.00 57 1011.9
20260906094403 78 65 0.0 0.0 0.00 0.00 0.00 57 1011.9
20260906093859 78 66 0.0 0.0 0.00 0.00 0.00 57 1011.8
20260906093355 78 66 0.0 0.0 0.00 0.00 0.00 56 1011.8
20260906092855 78 66 0.0 0.0 0.00 0.00 0.00 56 1011.8
20260906092355 78 66 0.0 0.0 0.00 0.00 0.00 56 1012.0
20260906091850 79 66 0.0 0.0 0.00 0.00 0.00 56 1011.9
20260906091347 79 66 0.9 0.9 0.00 0.00 0.00 56 1011.9
20260906090843 79 65 0.0 0.0 0.00 0.00 0.00 56 1011.9
20260906090342 78 65 0.9 0.9 0.00 0.00 0.00 56 1012.0
20260906085836 78 65 0.0 0.0 0.00 0.00 0.00 56 1011.9
20260906085330 79 65 0.0 0.0 0.00 0.00 0.00 56 1012.2
20260906084825 79 65 0.0 0.0 0.00 0.00 0.00 56 1012.0
20260906084325 79 65 0.0 0.0 0.00 0.00 0.00 55 1012.0
20260906083819 79 65 0.0 0.0 0.00 0.00 0.00 54 1012.1
20260906083315 79 65 0.0 0.0 0.00 0.00 0.00 55 1011.9
20260906082809 79 65 0.0 0.0 0.00 0.00 0.00 54 1012.0
20260906082306 80 65 0.0 0.0 0.00 0.00 0.00 54 1012.1
20260906081800 80 65 0.0 0.0 0.00 0.00 0.00 53 1012.0
20260906081255 80 58 0.0 0.0 0.00 0.00 0.00 53 1012.0
20260906080752 80 57 0.0 0.0 0.00 0.00 0.00 53 1012.1
20260906080248 80 57 0.0 0.0 0.00 0.00 0.00 53 1012.2
20260906075748 81 57 0.0 0.0 0.00 0.00 0.00 52 1011.9
20260906075247 81 57 0.0 0.0 0.00 0.00 0.00 50 1012.1
20260906074743 82 57 0.0 0.0 0.00 0.00 0.00 49 1012.1
20260906074242 82 57 0.0 0.0 0.00 0.00 0.00 49 1012.1
20260906073742 82 57 0.0 0.0 0.00 0.00 0.00 49 1012.2
20260906073237 82 57 0.0 0.0 0.00 0.00 0.00 49 1012.6
20260906072732 81 53 0.9 0.9 0.00 0.00 0.00 51 1012.6
20260906072228 81 51 0.0 0.0 0.00 0.00 0.00 52 1012.5
20260906071724 81 51 0.0 0.0 0.00 0.00 0.00 52 1012.4
20260906071224 81 51 0.0 0.0 0.00 0.00 0.00 51 1012.5
20260906070721 82 51 0.0 0.0 0.00 0.00 0.00 50 1012.7
20260906070216 82 51 0.0 0.0 0.00 0.00 0.00 49 1012.5
20260906065715 82 51 0.0 0.0 0.00 0.00 0.00 49 1012.5
20260906065211 82 51 0.0 0.0 0.00 0.00 0.00 49 1012.2
20260906064706 82 51 0.0 0.0 0.00 0.00 0.00 49 1012.1
20260906064201 82 51 0.0 0.0 0.00 0.00 0.00 49 1012.5
20260906063656 82 50 0.0 0.9 0.00 0.00 0.00 49 1012.4
20260906063152 83 45 0.0 0.0 0.00 0.00 0.00 48 1012.6
20260906062648 83 45 0.0 0.0 0.00 0.00 0.00 48 1012.5
20260906062146 83 44 0.0 0.0 0.00 0.00 0.00 47 1012.5
20260906061643 83 44 0.0 0.0 0.00 0.00 0.00 47 1012.6
20260906061143 84 44 0.0 0.0 0.00 0.00 0.00 46 1012.7
20260906060639 84 44 0.0 0.0 0.00 0.00 0.00 45 1012.5
20260906060136 84 44 0.0 0.0 0.00 0.00 0.00 44 1012.5
20260906055632 84 44 0.0 0.0 0.00 0.00 0.00 45 1012.7
20260906055127 84 44 0.0 0.0 0.00 0.00 0.00 45 1012.4
20260906054622 84 44 0.0 0.0 0.00 0.00 0.00 44 1012.6
20260906054117 85 44 0.0 0.0 0.00 0.00 0.00 44 1012.6
20260906053614 85 44 0.0 0.0 0.00 0.00 0.00 43 1012.6
20260906053108 84 44 0.0 0.0 0.00 0.00 0.00 43 1012.6
20260906052604 84 44 0.0 0.0 0.00 0.00 0.00 43 1012.4
20260906052101 84 43 0.0 0.0 0.00 0.00 0.00 44 1012.7
20260906051556 85 43 0.0 0.0 0.00 0.00 0.00 44 1012.6
20260906051051 85 43 0.0 0.0 0.00 0.00 0.00 43 1012.7
20260906050546 86 42 0.0 0.0 0.00 0.00 0.00 42 1012.6
20260906050042 86 43 0.0 0.0 0.00 0.00 0.00 41 1012.5
20260906045539 86 347 0.0 0.0 0.00 0.00 0.00 41 1012.7
20260906045036 86 346 0.0 0.0 0.00 0.00 0.00 41 1012.8
20260906044531 86 346 0.0 0.0 0.00 0.00 0.00 40 1012.5
20260906044026 87 347 0.0 0.0 0.00 0.00 0.00 39 1012.6
20260906043522 87 346 0.0 0.0 0.00 0.00 0.00 38 1012.6
20260906043018 88 346 0.0 0.0 0.00 0.00 0.00 37 1012.7
20260906042516 88 327 0.9 0.9 0.00 0.00 0.00 37 1012.5
20260906042011 89 17 0.0 0.0 0.00 0.00 0.00 37 1012.5
20260906041508 89 1 0.9 0.9 0.00 0.00 0.00 37 1012.2
20260906041007 88 8 0.0 0.9 0.00 0.00 0.00 37 1012.6
20260906040503 89 7 0.9 0.9 0.00 0.00 0.00 36 1012.4
20260906035957 89 306 1.7 1.7 0.00 0.00 0.00 36 1012.7
20260906035453 89 0 0.9 0.9 0.00 0.00 0.00 36 1012.4
20260906034948 89 348 0.9 0.9 0.00 0.00 0.00 36 1012.4
20260906034443 89 293 0.0 0.9 0.00 0.00 0.00 36 1012.2
20260906033938 90 353 0.0 0.0 0.00 0.00 0.00 36 1012.6
20260906033433 90 342 0.9 0.9 0.00 0.00 0.00 36 1012.4
20260906032928 90 299 0.9 0.9 0.00 0.00 0.00 36 1011.9
20260906032425 90 351 2.6 5.2 0.00 0.00 0.00 36 1012.0
20260906031919 90 341 0.9 0.9 0.00 0.00 0.00 36 1011.9
20260906031414 90 358 0.9 0.9 0.00 0.00 0.00 36 1011.8
20260906030909 90 329 0.9 1.7 0.00 0.00 0.00 36 1011.8
20260906030404 90 293 1.7 1.7 0.00 0.00 0.00 35 1011.9
20260906025859 90 334 0.0 0.0 0.00 0.00 0.00 35 1011.8
20260906025353 90 288 1.7 1.7 0.00 0.00 0.00 35 1011.6
20260906024852 90 315 0.9 0.9 0.00 0.00 0.00 35 1011.7
20260906024351 90 300 2.6 2.6 0.00 0.00 0.00 35 1011.5
20260906023846 90 308 2.6 2.6 0.00 0.00 0.00 35 1011.7
20260906023342 91 304 0.9 0.9 0.00 0.00 0.00 35 1011.6
20260906022837 91 297 0.9 0.9 0.00 0.00 0.00 34 1011.6
20260906022338 91 318 0.9 0.9 0.00 0.00 0.00 34 1011.5
20260906021833 91 313 0.9 0.9 0.00 0.00 0.00 34 1011.2
20260906021332 91 322 2.6 1.7 0.00 0.00 0.00 34 1011.5
20260906020828 91 8 1.7 1.7 0.00 0.00 0.00 34 1011.4
20260906020327 91 10 1.7 2.6 0.00 0.00 0.00 34 1011.3
20260906015822 92 288 1.7 1.7 0.00 0.00 0.00 34 1011.4
20260906015320 92 299 2.6 4.3 0.00 0.00 0.00 34 1011.6
20260906014815 92 302 1.7 1.7 0.00 0.00 0.00 33 1011.4
20260906014310 92 333 4.3 6.1 0.00 0.00 0.00 33 1011.4
20260906013806 92 300 2.6 2.6 0.00 0.00 0.00 33 1011.4
20260906013301 92 18 0.9 0.9 0.00 0.00 0.00 33 1011.2
20260906012757 93 298 4.3 5.2 0.00 0.00 0.00 33 1011.5
20260906012251 93 272 4.3 6.1 0.00 0.00 0.00 32 1011.4
20260906011747 93 305 2.6 6.1 0.00 0.00 0.00 32 1011.3
20260906011246 93 316 2.6 4.3 0.00 0.00 0.00 32 1011.5
20260906010742 93 287 1.7 1.7 0.00 0.00 0.00 32 1011.5
20260906010238 94 295 4.3 5.2 0.00 0.00 0.00 32 1011.4
20260906005733 94 301 1.7 2.6 0.00 0.00 0.00 32 1011.5
20260906005232 95 345 3.5 6.1 0.00 0.00 0.00 31 1011.1
20260906004731 95 290 1.7 1.7 0.00 0.00 0.00 32 1011.1
20260906004227 95 300 3.5 5.2 0.00 0.00 0.00 31 1011.1
20260906003722 95 274 1.7 1.7 0.00 0.00 0.00 31 1011.2
20260906003218 96 288 4.3 7.0 0.00 0.00 0.00 31 1011.4
20260906002717 96 271 2.6 4.3 0.00 0.00 0.00 31 1011.5
20260906002212 96 300 4.3 6.1 0.00 0.00 0.00 30 1011.2
20260906001708 96 291 4.3 6.1 0.00 0.00 0.00 30 1011.3
20260906001207 96 292 3.5 4.3 0.00 0.00 0.00 30 1011.3
20260906000703 96 340 6.1 8.7 0.00 0.00 0.00 30 1011.1
20260906000158 97 276 4.3 7.8 0.00 0.00 0.00 30 1011.1
20260905235657 97 288 2.6 2.6 0.00 0.00 0.00 30 1011.1
20260905235152 97 319 4.3 6.1 0.00 0.00 0.00 30 1011.0
20260905234647 97 283 4.3 7.0 0.00 0.00 0.00 29 1011.1
20260905234143 97 276 2.6 2.6 0.00 0.00 0.00 29 1011.4
20260905233638 98 314 3.5 4.3 0.00 0.00 0.00 29 1011.1
20260905233137 97 268 2.6 2.6 0.00 0.00 0.00 29 1011.2
20260905232633 97 303 3.5 4.3 0.00 0.00 0.00 29 1011.3
20260905232128 97 291 4.3 6.1 0.00 0.00 0.00 29 1011.3
20260905231623 97 282 3.5 4.3 0.00 0.00 0.00 29 1011.5
20260905231120 99 269 3.5 5.2 0.00 0.00 0.00 28 1011.4
20260905230615 98 296 2.6 4.3 0.00 0.00 0.00 28 1011.5
20260905230113 98 306 4.3 5.2 0.00 0.00 0.00 28 1011.4
20260905225613 98 293 2.6 4.3 0.00 0.00 0.00 28 1011.4
20260905225108 97 277 2.6 2.6 0.00 0.00 0.00 29 1011.4
20260905224608 98 262 2.6 2.6 0.00 0.00 0.00 28 1011.3
20260905224107 98 299 3.5 5.2 0.00 0.00 0.00 29 1011.5
20260905223605 97 248 2.6 2.6 0.00 0.00 0.00 28 1011.5
20260905223101 97 295 2.6 5.2 0.00 0.00 0.00 29 1011.3
20260905222600 98 306 2.6 4.3 0.00 0.00 0.00 29 1011.7
20260905222055 97 288 3.5 6.1 0.00 0.00 0.00 29 1011.8
20260905221552 98 309 6.1 8.7 0.00 0.00 0.00 29 1011.8
20260905221048 98 324 2.6 1.7 0.00 0.00 0.00 29 1011.8
20260905220543 99 276 3.5 5.2 0.00 0.00 0.00 28 1011.9
20260905220039 98 295 0.9 1.7 0.00 0.00 0.00 29 1011.8
20260905215538 98 303 3.5 5.2 0.00 0.00 0.00 28 1012.0
20260905215035 98 298 2.6 5.2 0.00 0.00 0.00 29 1012.0
20260905214530 98 307 2.6 4.3 0.00 0.00 0.00 29 1011.9
20260905214025 98 319 4.3 6.1 0.00 0.00 0.00 29 1012.4
20260905213521 98 315 2.6 2.6 0.00 0.00 0.00 28 1012.2
20260905213016 97 302 2.6 4.3 0.00 0.00 0.00 30 1012.2
20260905212511 98 301 5.2 6.1 0.00 0.00 0.00 29 1012.5
20260905212010 98 300 1.7 1.7 0.00 0.00 0.00 29 1012.5
20260905211506 98 317 4.3 5.2 0.00 0.00 0.00 29 1012.5
20260905211001 98 21 1.7 1.7 0.00 0.00 0.00 29 1012.6
20260905210457 98 306 4.3 6.1 0.00 0.00 0.00 29 1012.8
20260905205956 97 24 2.6 2.6 0.00 0.00 0.00 30 1012.7